BAW46EZ EGLL-LEMD

Flight info

Callsign BAW46EZ
Flight time N/A
Altitude 31000
Route GASGU N866 SAM M195 IBNID/N0445F330 M195 MARUK N621 LELNA DCT NOVAN DCT DELOG N864 NONTU
Aircraft B772/H-SDE2E3FGHIJ5LORVWXY/LB1D1

Departure

Time 2026-05-07 16:44
Airport London Heathrow Airport (EGLL)

Arrival

Time N/A
Airport Adolfo Suárez Madrid–Barajas Airport (LEMD)
Time Latitude Longitude Altitude Speed Heading
2026-05-07 16:23 51.46980 -0.48024 90 ft 0 kts 270°
2026-05-07 16:23 51.46980 -0.48023 90 ft 0 kts 270°
2026-05-07 16:33 51.46980 -0.48010 91 ft 4 kts 270°
2026-05-07 16:33 51.46980 -0.47967 91 ft 4 kts 270°
2026-05-07 16:33 51.46980 -0.47924 92 ft 3 kts 270°
2026-05-07 16:33 51.46982 -0.47892 92 ft 4 kts 239°
2026-05-07 16:34 51.47000 -0.47870 92 ft 4 kts 184°
2026-05-07 16:34 51.47026 -0.47869 91 ft 4 kts 180°
2026-05-07 16:34 51.47035 -0.47869 91 ft 0 kts 180°
2026-05-07 16:39 51.46930 -0.47867 90 ft 26 kts 178°
2026-05-07 16:39 51.46797 -0.47871 90 ft 15 kts 189°
2026-05-07 16:39 51.46742 -0.47985 92 ft 13 kts 266°
2026-05-07 16:40 51.46743 -0.48109 92 ft 10 kts 270°
2026-05-07 16:40 51.46742 -0.48360 91 ft 36 kts 269°
2026-05-07 16:40 51.46735 -0.48675 91 ft 20 kts 251°
2026-05-07 16:40 51.46661 -0.48742 92 ft 11 kts 188°
2026-05-07 16:41 51.46648 -0.48746 94 ft 0 kts 192°
2026-05-07 16:42 51.46645 -0.48747 91 ft 6 kts 192°
2026-05-07 16:42 51.46534 -0.48770 93 ft 19 kts 167°
2026-05-07 16:42 51.46479 -0.48650 93 ft 0 kts 90°
2026-05-07 16:44 51.46479 -0.48591 92 ft 28 kts 90°
2026-05-07 16:44 51.46482 -0.47762 93 ft 119 kts 89°
2026-05-07 16:44 51.46508 -0.46039 307 ft 176 kts 87°
2026-05-07 16:44 51.46677 -0.44124 1385 ft 178 kts 79°
2026-05-07 16:45 51.46977 -0.42069 2222 ft 197 kts 79°
2026-05-07 16:45 51.46919 -0.39815 2520 ft 215 kts 117°
2026-05-07 16:45 51.45909 -0.37960 2753 ft 230 kts 141°
2026-05-07 16:45 51.44718 -0.36075 3028 ft 249 kts 132°
2026-05-07 16:46 51.43571 -0.33938 3564 ft 256 kts 139°
2026-05-07 16:46 51.41967 -0.32720 4110 ft 262 kts 172°
2026-05-07 16:46 51.40150 -0.32801 4885 ft 264 kts 192°
2026-05-07 16:46 51.38395 -0.33692 5612 ft 267 kts 204°
2026-05-07 16:47 51.36836 -0.35296 6038 ft 268 kts 220°
2026-05-07 16:47 51.35452 -0.37346 6547 ft 273 kts 224°
2026-05-07 16:47 51.34073 -0.39435 7356 ft 271 kts 223°
2026-05-07 16:47 51.32697 -0.41492 8147 ft 271 kts 223°
2026-05-07 16:48 51.31380 -0.43642 8877 ft 272 kts 232°
2026-05-07 16:48 51.30381 -0.46232 9502 ft 277 kts 244°
2026-05-07 16:48 51.29664 -0.49104 10201 ft 279 kts 251°
2026-05-07 16:48 51.29120 -0.52094 10831 ft 282 kts 253°
2026-05-07 16:49 51.28588 -0.55152 11285 ft 294 kts 253°
2026-05-07 16:49 51.28013 -0.58422 11208 ft 324 kts 252°
2026-05-07 16:49 51.27329 -0.62032 11424 ft 348 kts 252°
2026-05-07 16:49 51.26601 -0.65786 11852 ft 363 kts 251°
2026-05-07 16:50 51.25837 -0.69704 12548 ft 373 kts 251°
2026-05-07 16:50 51.25062 -0.73684 13400 ft 378 kts 251°
2026-05-07 16:50 51.24278 -0.77711 14254 ft 381 kts 251°
2026-05-07 16:50 51.23486 -0.81776 15079 ft 384 kts 252°
2026-05-07 16:51 51.22700 -0.85807 15893 ft 387 kts 252°
2026-05-07 16:51 51.21894 -0.89928 16716 ft 391 kts 252°
2026-05-07 16:51 51.21054 -0.94063 17462 ft 390 kts 248°
2026-05-07 16:51 51.19664 -0.97795 18067 ft 397 kts 227°
2026-05-07 16:52 51.17654 -1.00794 18641 ft 399 kts 223°
2026-05-07 16:52 51.15606 -1.03824 19362 ft 400 kts 224°
2026-05-07 16:52 51.13624 -1.06847 20544 ft 390 kts 224°
2026-05-07 16:52 51.11678 -1.09837 21437 ft 390 kts 224°
2026-05-07 16:53 51.09718 -1.12847 22048 ft 395 kts 224°
2026-05-07 16:53 51.07718 -1.15910 22625 ft 401 kts 224°
2026-05-07 16:53 51.05694 -1.19002 23236 ft 406 kts 224°
2026-05-07 16:53 51.03648 -1.22121 23845 ft 409 kts 224°
2026-05-07 16:54 51.01584 -1.25264 24420 ft 412 kts 224°
2026-05-07 16:54 50.99514 -1.28412 24967 ft 414 kts 224°
2026-05-07 16:54 50.97424 -1.31586 25486 ft 417 kts 224°
2026-05-07 16:54 50.95259 -1.34662 25969 ft 420 kts 220°
2026-05-07 16:55 50.92874 -1.37378 26437 ft 424 kts 214°
2026-05-07 16:55 50.90385 -1.39923 26896 ft 427 kts 214°
2026-05-07 16:55 50.87886 -1.42493 27357 ft 430 kts 214°
2026-05-07 16:55 50.85375 -1.45087 27804 ft 432 kts 214°
2026-05-07 16:56 50.82853 -1.47700 28233 ft 435 kts 214°
2026-05-07 16:56 50.80316 -1.50332 28640 ft 437 kts 214°
2026-05-07 16:56 50.75196 -1.55641 29403 ft 443 kts 214°
2026-05-07 16:57 50.72612 -1.58317 29773 ft 445 kts 214°
2026-05-07 16:57 50.70017 -1.61000 30123 ft 448 kts 214°
2026-05-07 16:57 50.67406 -1.63696 30410 ft 450 kts 214°
2026-05-07 16:57 50.64785 -1.66397 30698 ft 451 kts 214°
2026-05-07 16:58 50.62148 -1.69112 30933 ft 454 kts 214°
2026-05-07 16:58 50.59495 -1.71839 30989 ft 458 kts 214°
2026-05-07 16:58 50.54173 -1.77299 31027 ft 454 kts 214°
2026-05-07 16:59 50.48886 -1.82693 31040 ft 453 kts 214°
2026-05-07 16:59 50.43586 -1.88065 31038 ft 453 kts 213°
2026-05-07 17:00 50.38285 -1.93424 31031 ft 453 kts 213°
2026-05-07 17:00 50.33013 -1.98744 31037 ft 453 kts 213°
2026-05-07 17:01 50.27678 -2.04007 31015 ft 454 kts 208°
2026-05-07 17:01 50.21750 -2.07376 31027 ft 456 kts 194°
2026-05-07 17:02 50.15442 -2.08526 31021 ft 457 kts 185°
2026-05-07 17:02 50.09092 -2.09265 31019 ft 458 kts 186°
2026-05-07 17:03 50.02748 -2.10099 31019 ft 458 kts 186°
2026-05-07 17:03 49.96456 -2.11467 31021 ft 456 kts 195°
2026-05-07 17:04 49.90390 -2.14308 31020 ft 456 kts 198°
2026-05-07 17:04 49.84324 -2.17190 31018 ft 456 kts 198°
2026-05-07 17:05 49.78257 -2.20025 31024 ft 456 kts 198°
2026-05-07 17:05 49.72185 -2.22843 31016 ft 455 kts 198°
2026-05-07 17:06 49.66118 -2.25651 31034 ft 455 kts 197°
2026-05-07 17:06 49.60060 -2.28447 31019 ft 454 kts 197°
2026-05-07 17:07 49.54014 -2.31232 31025 ft 453 kts 197°
2026-05-07 17:07 49.47980 -2.34004 30987 ft 453 kts 198°
2026-05-07 17:08 49.41923 -2.36780 30993 ft 453 kts 198°
2026-05-07 17:08 49.35876 -2.39544 30997 ft 454 kts 198°
2026-05-07 17:09 49.30850 -2.41836 30996 ft 454 kts 198°
2026-05-07 17:09 49.24779 -2.44599 30989 ft 455 kts 198°
2026-05-07 17:10 49.18717 -2.47349 30994 ft 454 kts 198°
2026-05-07 17:10 49.12657 -2.50092 30991 ft 454 kts 198°
2026-05-07 17:11 49.06598 -2.52828 30991 ft 454 kts 198°
2026-05-07 17:11 49.00551 -2.55551 30991 ft 452 kts 198°
2026-05-07 17:12 48.94519 -2.58260 30986 ft 451 kts 198°
2026-05-07 17:12 48.88498 -2.60958 30989 ft 451 kts 198°
2026-05-07 17:13 48.82478 -2.63649 30987 ft 450 kts 198°
2026-05-07 17:13 48.76469 -2.66328 30977 ft 450 kts 198°
2026-05-07 17:14 48.70467 -2.68998 30975 ft 449 kts 198°
2026-05-07 17:14 48.64464 -2.71661 30975 ft 449 kts 198°
2026-05-07 17:15 48.58459 -2.74318 30973 ft 450 kts 197°
2026-05-07 17:15 48.52445 -2.76973 30979 ft 451 kts 197°
2026-05-07 17:16 48.46419 -2.79626 30971 ft 451 kts 197°
2026-05-07 17:16 48.40434 -2.82255 30976 ft 451 kts 197°
2026-05-07 17:17 48.34409 -2.84896 30968 ft 451 kts 197°
2026-05-07 17:17 48.28387 -2.87527 30975 ft 451 kts 197°
2026-05-07 17:18 48.22366 -2.90152 30970 ft 450 kts 197°
2026-05-07 17:18 48.16350 -2.92769 30967 ft 450 kts 197°
2026-05-07 17:19 48.10331 -2.95381 30971 ft 450 kts 197°
2026-05-07 17:19 48.04311 -2.97986 30982 ft 450 kts 197°
2026-05-07 17:20 47.98292 -3.00585 30977 ft 450 kts 197°
2026-05-07 17:20 47.92270 -3.03178 30969 ft 451 kts 197°
2026-05-07 17:21 47.86244 -3.05768 30975 ft 451 kts 197°
2026-05-07 17:21 47.80210 -3.08354 30990 ft 451 kts 197°
2026-05-07 17:22 47.74172 -3.10936 30984 ft 452 kts 197°
2026-05-07 17:22 47.68128 -3.13514 30988 ft 453 kts 197°
2026-05-07 17:23 47.62067 -3.16093 30985 ft 453 kts 197°
2026-05-07 17:23 47.56121 -3.18617 30989 ft 453 kts 197°
2026-05-07 17:24 47.50105 -3.21165 30986 ft 453 kts 197°
2026-05-07 17:24 47.44042 -3.23727 30984 ft 453 kts 197°
2026-05-07 17:25 47.37978 -3.26283 30985 ft 453 kts 197°
2026-05-07 17:25 47.31913 -3.28833 30983 ft 453 kts 197°
2026-05-07 17:26 47.25849 -3.31377 30994 ft 453 kts 197°
2026-05-07 17:26 47.19776 -3.33918 30983 ft 454 kts 197°
2026-05-07 17:27 47.13691 -3.36459 30981 ft 454 kts 197°
2026-05-07 17:27 47.07601 -3.38995 30980 ft 455 kts 197°
2026-05-07 17:28 47.01517 -3.41523 30981 ft 455 kts 197°
2026-05-07 17:28 46.95426 -3.44047 30977 ft 455 kts 197°
2026-05-07 17:29 46.89380 -3.46547 30973 ft 455 kts 197°
2026-05-07 17:29 46.83288 -3.49061 30975 ft 455 kts 197°
2026-05-07 17:30 46.77198 -3.51567 30977 ft 455 kts 197°
2026-05-07 17:30 46.71110 -3.54067 30979 ft 455 kts 197°
2026-05-07 17:31 46.65015 -3.56563 30976 ft 455 kts 197°
2026-05-07 17:31 46.58914 -3.59056 30972 ft 455 kts 197°
2026-05-07 17:32 46.57886 -3.59476 30973 ft 455 kts 197°
2026-05-07 17:32 46.52629 -3.61619 30973 ft 455 kts 197°
2026-05-07 17:33 46.46531 -3.64098 30968 ft 456 kts 197°
2026-05-07 17:33 46.40402 -3.66584 30971 ft 458 kts 197°
2026-05-07 17:34 46.34263 -3.69067 30971 ft 459 kts 196°
2026-05-07 17:34 46.27967 -3.70652 30966 ft 461 kts 187°
2026-05-07 17:35 46.21582 -3.71535 30968 ft 461 kts 187°
2026-05-07 17:35 46.15206 -3.72458 30964 ft 460 kts 187°
2026-05-07 17:36 46.08837 -3.73403 30963 ft 460 kts 187°
2026-05-07 17:36 46.02475 -3.74351 30959 ft 459 kts 187°
2026-05-07 17:37 45.96124 -3.75295 30957 ft 459 kts 187°
2026-05-07 17:37 45.89770 -3.76237 30960 ft 459 kts 188°
2026-05-07 17:38 45.83405 -3.77178 30956 ft 460 kts 188°
2026-05-07 17:38 45.77042 -3.78116 30958 ft 460 kts 188°
2026-05-07 17:39 45.70661 -3.79055 31053 ft 463 kts 188°
2026-05-07 17:39 45.67453 -3.79526 31334 ft 464 kts 188°
2026-05-07 17:39 45.64281 -3.79991 31634 ft 464 kts 188°
2026-05-07 17:40 45.61065 -3.80463 31867 ft 466 kts 188°
2026-05-07 17:40 45.57828 -3.80937 32060 ft 469 kts 188°
2026-05-07 17:40 45.54578 -3.81412 32268 ft 470 kts 188°
2026-05-07 17:40 45.51324 -3.81887 32535 ft 470 kts 188°
2026-05-07 17:41 45.48059 -3.82363 32785 ft 471 kts 188°
2026-05-07 17:41 45.44799 -3.82837 33063 ft 471 kts 188°
2026-05-07 17:41 45.41545 -3.83310 33368 ft 470 kts 188°
2026-05-07 17:41 45.38292 -3.83783 33678 ft 470 kts 188°
2026-05-07 17:42 45.35042 -3.84255 33947 ft 470 kts 188°
2026-05-07 17:42 45.31789 -3.84727 34168 ft 470 kts 188°
2026-05-07 17:42 45.28538 -3.85197 34441 ft 469 kts 188°
2026-05-07 17:42 45.25292 -3.85667 34682 ft 469 kts 188°
2026-05-07 17:43 45.22035 -3.86138 34801 ft 472 kts 188°
2026-05-07 17:43 45.18759 -3.86612 34862 ft 476 kts 188°
2026-05-07 17:43 45.12128 -3.87568 34919 ft 480 kts 188°
2026-05-07 17:44 45.05503 -3.88518 34925 ft 477 kts 188°
2026-05-07 17:44 44.98907 -3.89463 34926 ft 475 kts 188°
2026-05-07 17:45 44.92331 -3.90404 34916 ft 475 kts 188°
2026-05-07 17:45 44.85804 -3.91335 34923 ft 474 kts 188°
2026-05-07 17:46 44.79231 -3.92272 34925 ft 475 kts 188°
2026-05-07 17:46 44.72658 -3.93205 34921 ft 475 kts 188°
2026-05-07 17:47 44.66072 -3.94139 34921 ft 475 kts 188°
2026-05-07 17:47 44.59447 -3.95075 34916 ft 476 kts 188°
2026-05-07 17:48 44.52902 -3.95998 34901 ft 476 kts 188°
2026-05-07 17:48 44.46309 -3.96925 34910 ft 476 kts 188°
2026-05-07 17:49 44.39718 -3.97848 34910 ft 476 kts 188°
2026-05-07 17:49 44.33116 -3.98686 34896 ft 477 kts 185°
2026-05-07 17:50 44.26457 -3.98280 34911 ft 480 kts 178°
2026-05-07 17:50 44.19792 -3.97547 34903 ft 481 kts 179°
2026-05-07 17:51 44.13118 -3.96860 34884 ft 481 kts 179°
2026-05-07 17:51 44.06439 -3.96204 34898 ft 481 kts 179°
2026-05-07 17:52 43.99752 -3.95553 34890 ft 482 kts 179°
2026-05-07 17:52 43.93054 -3.94899 34879 ft 483 kts 179°
2026-05-07 17:53 43.86343 -3.94244 34899 ft 484 kts 179°
2026-05-07 17:53 43.79615 -3.93587 34889 ft 485 kts 179°
2026-05-07 17:54 43.72876 -3.92933 34880 ft 486 kts 179°
2026-05-07 17:54 43.66124 -3.92273 34888 ft 487 kts 179°
2026-05-07 17:55 43.59366 -3.91609 34885 ft 487 kts 179°
2026-05-07 17:55 43.52604 -3.90945 34880 ft 488 kts 180°
2026-05-07 17:56 43.46970 -3.90407 34885 ft 488 kts 181°
2026-05-07 17:56 43.39144 -3.90962 34882 ft 483 kts 191°
2026-05-07 17:57 43.33549 -3.91876 34876 ft 484 kts 191°
2026-05-07 17:57 43.26845 -3.92920 34891 ft 485 kts 190°
2026-05-07 17:58 43.20127 -3.93921 34899 ft 486 kts 190°
2026-05-07 17:58 43.13396 -3.94911 34884 ft 485 kts 190°
2026-05-07 17:59 43.06694 -3.95899 34901 ft 484 kts 190°
2026-05-07 17:59 42.99994 -3.96886 34913 ft 484 kts 190°
2026-05-07 18:00 42.93300 -3.97871 34913 ft 483 kts 191°
2026-05-07 18:00 42.86672 -3.98845 34921 ft 483 kts 191°
2026-05-07 18:01 42.79988 -3.99822 34921 ft 483 kts 191°
2026-05-07 18:01 42.73309 -4.00795 34927 ft 483 kts 191°
2026-05-07 18:02 42.63292 -4.02249 34930 ft 483 kts 191°
2026-05-07 18:03 42.56610 -4.03218 34927 ft 483 kts 191°
2026-05-07 18:03 42.49926 -4.04184 34922 ft 483 kts 191°
2026-05-07 18:04 42.43249 -4.05143 34919 ft 479 kts 191°
2026-05-07 18:04 42.39950 -4.05614 34642 ft 476 kts 191°
2026-05-07 18:04 42.36660 -4.06084 34173 ft 473 kts 191°
2026-05-07 18:04 42.33401 -4.06549 33676 ft 469 kts 191°
2026-05-07 18:05 42.30169 -4.07010 33187 ft 465 kts 191°
2026-05-07 18:05 42.26965 -4.07468 32719 ft 461 kts 191°
2026-05-07 18:05 42.23791 -4.07920 32266 ft 456 kts 191°
2026-05-07 18:05 42.20649 -4.08368 31802 ft 452 kts 191°
2026-05-07 18:06 42.17533 -4.08812 31364 ft 448 kts 191°
2026-05-07 18:06 42.14447 -4.09251 30929 ft 444 kts 191°
2026-05-07 18:06 42.11383 -4.09686 30480 ft 441 kts 191°
2026-05-07 18:06 42.08346 -4.10116 30039 ft 438 kts 191°
2026-05-07 18:07 42.05322 -4.10546 29539 ft 435 kts 191°
2026-05-07 18:07 42.02324 -4.10969 29034 ft 432 kts 190°
2026-05-07 18:07 41.99341 -4.11344 28561 ft 429 kts 189°
2026-05-07 18:07 41.96378 -4.11681 28078 ft 426 kts 188°
2026-05-07 18:08 41.93431 -4.12006 27607 ft 423 kts 188°
2026-05-07 18:08 41.90509 -4.12327 27123 ft 420 kts 188°
2026-05-07 18:08 41.87606 -4.12651 26659 ft 417 kts 188°
2026-05-07 18:08 41.84720 -4.12975 26201 ft 415 kts 188°
2026-05-07 18:09 41.81854 -4.13300 25747 ft 412 kts 188°
2026-05-07 18:09 41.79004 -4.13624 25296 ft 410 kts 188°
2026-05-07 18:09 41.76172 -4.13946 24848 ft 408 kts 188°
2026-05-07 18:09 41.73356 -4.14265 24402 ft 405 kts 187°
2026-05-07 18:10 41.70550 -4.14584 23956 ft 403 kts 187°
2026-05-07 18:10 41.67761 -4.14901 23513 ft 401 kts 187°
2026-05-07 18:10 41.64985 -4.15215 22997 ft 400 kts 187°
2026-05-07 18:10 41.62222 -4.15526 22517 ft 397 kts 187°
2026-05-07 18:11 41.59480 -4.15835 22046 ft 394 kts 187°
2026-05-07 18:11 41.57674 -4.16038 21766 ft 392 kts 187°
2026-05-07 18:11 41.54094 -4.16443 21191 ft 388 kts 187°
2026-05-07 18:11 41.51414 -4.16745 20762 ft 386 kts 187°
2026-05-07 18:12 41.48749 -4.17045 20341 ft 383 kts 187°
2026-05-07 18:12 41.46099 -4.17344 19917 ft 381 kts 186°
2026-05-07 18:12 41.43460 -4.17642 19498 ft 379 kts 186°
2026-05-07 18:12 41.40847 -4.17937 19209 ft 375 kts 186°
2026-05-07 18:13 41.38271 -4.18226 19033 ft 367 kts 186°
2026-05-07 18:13 41.35752 -4.18508 18887 ft 360 kts 186°
2026-05-07 18:13 41.33283 -4.18784 18773 ft 351 kts 186°
2026-05-07 18:13 41.30880 -4.19053 18708 ft 342 kts 186°
2026-05-07 18:14 41.28544 -4.19316 18646 ft 333 kts 186°
2026-05-07 18:14 41.26266 -4.19572 18530 ft 325 kts 187°
2026-05-07 18:14 41.24027 -4.19826 18315 ft 321 kts 187°
2026-05-07 18:14 41.21804 -4.20085 18008 ft 320 kts 187°
2026-05-07 18:15 41.19585 -4.20349 17676 ft 319 kts 187°
2026-05-07 18:15 41.17379 -4.20618 17372 ft 318 kts 187°
2026-05-07 18:15 41.15185 -4.20892 17079 ft 316 kts 187°
2026-05-07 18:15 41.13006 -4.21023 16650 ft 316 kts 176°
2026-05-07 18:16 41.10832 -4.20332 15908 ft 329 kts 160°
2026-05-07 18:16 41.08690 -4.19154 15366 ft 336 kts 159°
2026-05-07 18:16 41.06517 -4.17948 15026 ft 339 kts 159°
2026-05-07 18:16 41.04336 -4.16746 15003 ft 340 kts 159°
2026-05-07 18:17 41.02129 -4.15544 15007 ft 344 kts 159°
2026-05-07 18:17 40.99906 -4.14343 15013 ft 346 kts 160°
2026-05-07 18:17 40.97681 -4.13149 15009 ft 344 kts 160°
2026-05-07 18:17 40.95467 -4.11968 14990 ft 342 kts 160°
2026-05-07 18:18 40.93266 -4.10799 14698 ft 340 kts 160°
2026-05-07 18:18 40.91079 -4.09638 14308 ft 338 kts 160°
2026-05-07 18:18 40.88895 -4.08481 13854 ft 338 kts 160°
2026-05-07 18:18 40.86718 -4.07329 13429 ft 336 kts 160°
2026-05-07 18:19 40.84561 -4.06189 13076 ft 332 kts 160°
2026-05-07 18:19 40.82421 -4.05061 12582 ft 332 kts 160°
2026-05-07 18:19 40.80282 -4.03932 12137 ft 330 kts 160°
2026-05-07 18:19 40.78132 -4.02799 11880 ft 345 kts 160°
2026-05-07 18:20 40.75801 -4.01580 11941 ft 376 kts 160°
2026-05-07 18:20 40.73265 -4.00251 11992 ft 408 kts 160°
2026-05-07 18:20 40.70613 -3.98856 12307 ft 392 kts 159°
2026-05-07 18:20 40.68178 -3.97562 10983 ft 372 kts 160°
2026-05-07 18:21 40.65808 -3.96306 10264 ft 355 kts 160°
2026-05-07 18:21 40.63593 -3.95143 10157 ft 331 kts 160°
2026-05-07 18:21 40.61456 -3.94025 10098 ft 327 kts 161°
2026-05-07 18:21 40.59371 -3.92936 10030 ft 319 kts 161°
2026-05-07 18:22 40.57316 -3.91864 10032 ft 317 kts 160°
2026-05-07 18:22 40.55953 -3.91153 10028 ft 319 kts 160°
2026-05-07 18:22 40.53184 -3.89707 10032 ft 320 kts 160°
2026-05-07 18:22 40.51119 -3.88628 10028 ft 320 kts 161°
2026-05-07 18:23 40.49081 -3.87564 10015 ft 319 kts 160°
2026-05-07 18:23 40.47023 -3.86490 10012 ft 318 kts 160°
2026-05-07 18:23 40.44964 -3.85417 10010 ft 318 kts 160°
2026-05-07 18:23 40.42907 -3.84345 10013 ft 318 kts 160°
2026-05-07 18:24 40.40891 -3.83255 9945 ft 305 kts 154°
2026-05-07 18:24 40.39252 -3.81574 9709 ft 299 kts 131°
2026-05-07 18:24 40.37990 -3.79452 9420 ft 292 kts 130°
2026-05-07 18:24 40.36728 -3.77405 9139 ft 287 kts 132°
2026-05-07 18:25 40.35461 -3.75387 8808 ft 285 kts 132°
2026-05-07 18:25 40.34200 -3.73384 8447 ft 284 kts 132°
2026-05-07 18:25 40.32946 -3.71396 8110 ft 282 kts 132°
2026-05-07 18:25 40.31703 -3.69423 7786 ft 280 kts 132°
2026-05-07 18:26 40.30470 -3.67462 7464 ft 278 kts 131°
2026-05-07 18:26 40.29241 -3.65514 7141 ft 276 kts 132°
2026-05-07 18:26 40.28016 -3.63578 6835 ft 275 kts 131°
2026-05-07 18:26 40.26804 -3.61656 6536 ft 273 kts 131°
2026-05-07 18:27 40.25600 -3.59750 6303 ft 268 kts 131°
2026-05-07 18:27 40.24438 -3.57911 6223 ft 257 kts 131°
2026-05-07 18:27 40.23347 -3.56183 6003 ft 238 kts 131°
2026-05-07 18:27 40.22648 -3.55078 5750 ft 238 kts 131°
2026-05-07 18:28 40.21141 -3.53054 5318 ft 228 kts 138°
2026-05-07 18:28 40.20280 -3.51333 4894 ft 230 kts 106°
2026-05-07 18:28 40.20302 -3.49318 4803 ft 218 kts 75°
2026-05-07 18:28 40.20820 -3.47522 4672 ft 204 kts 71°
2026-05-07 18:29 40.21336 -3.45844 4454 ft 194 kts 70°
2026-05-07 18:29 40.21835 -3.44230 4117 ft 191 kts 70°
2026-05-07 18:29 40.22324 -3.42661 3997 ft 180 kts 70°
2026-05-07 18:29 40.23025 -3.41299 4002 ft 192 kts 40°
2026-05-07 18:30 40.24257 -3.40576 4022 ft 198 kts 20°
2026-05-07 18:30 40.25571 -3.40023 4046 ft 199 kts 21°
2026-05-07 18:30 40.26876 -3.39466 4019 ft 195 kts 20°
2026-05-07 18:30 40.28162 -3.38914 4011 ft 193 kts 18°
2026-05-07 18:31 40.29502 -3.38882 3992 ft 193 kts 342°
2026-05-07 18:31 40.30632 -3.39708 4016 ft 181 kts 328°
2026-05-07 18:31 40.31673 -3.40609 4001 ft 180 kts 325°
2026-05-07 18:31 40.32679 -3.41576 4011 ft 178 kts 323°
2026-05-07 18:32 40.33668 -3.42564 4014 ft 180 kts 322°
2026-05-07 18:32 40.34663 -3.43568 4015 ft 180 kts 323°
2026-05-07 18:32 40.35658 -3.44576 4004 ft 181 kts 324°
2026-05-07 18:32 40.36649 -3.45582 4005 ft 179 kts 323°
2026-05-07 18:33 40.37641 -3.46589 4009 ft 181 kts 323°
2026-05-07 18:33 40.38639 -3.47601 3859 ft 182 kts 324°
2026-05-07 18:33 40.39600 -3.48575 3619 ft 167 kts 324°
2026-05-07 18:33 40.40497 -3.49485 3407 ft 163 kts 324°
2026-05-07 18:34 40.41398 -3.50401 3214 ft 164 kts 324°
2026-05-07 18:34 40.42297 -3.51305 2924 ft 160 kts 323°
2026-05-07 18:34 40.43135 -3.52167 2707 ft 149 kts 324°
2026-05-07 18:34 40.43943 -3.52989 2489 ft 146 kts 323°
2026-05-07 18:35 40.44744 -3.53810 2374 ft 148 kts 322°
2026-05-07 18:35 40.45561 -3.54633 2197 ft 146 kts 323°
2026-05-07 18:35 40.46358 -3.55443 2003 ft 144 kts 322°